OK3MS-5 Weather Reports


time (UTC)temp
C
wind
direction
speed
KPH
gust
KPH
rain 1hr
cm
rain 24hr
cm
rain mn
cm
humidity
%
barometer
mb
20260502214509 11 114 0.0 0.0 0.00 0.00 0.00 62 1018.6
20260502214002 12 114 0.0 0.0 0.00 0.00 0.00 50 1018.3
20260502213508 12 114 0.0 0.0 0.00 0.00 0.00 49 1018.3
20260502213002 13 114 0.0 0.0 0.00 0.00 0.00 48 1018.2
20260502212505 13 114 0.0 0.0 0.00 0.00 0.00 47 1018.1
20260502212004 13 114 0.0 3.2 0.00 0.00 0.00 47 1018.1
20260502211505 13 110 0.0 3.2 0.00 0.00 0.00 45 1018.1
20260502211002 13 110 0.0 0.0 0.00 0.00 0.00 46 1018.1
20260502210504 14 110 0.0 0.0 0.00 0.00 0.00 45 1018.1
20260502210004 13 110 0.0 3.2 0.00 0.00 0.00 45 1018.0
20260502205505 13 110 0.0 0.0 0.00 0.00 0.00 47 1018.2
20260502205003 14 110 0.0 0.0 0.00 0.00 0.00 46 1018.0
20260502204504 14 110 0.0 1.6 0.00 0.00 0.00 45 1018.2
20260502204007 14 110 0.0 0.0 0.00 0.00 0.00 45 1018.2
20260502203504 14 110 0.0 0.0 0.00 0.00 0.00 45 1018.2
20260502203007 14 110 0.0 0.0 0.00 0.00 0.00 45 1018.1
20260502202505 14 110 0.0 0.0 0.00 0.00 0.00 45 1018.2
20260502202008 14 110 0.0 0.0 0.00 0.00 0.00 44 1018.2
20260502201504 15 110 0.0 0.0 0.00 0.00 0.00 44 1018.2
20260502201009 15 110 0.0 0.0 0.00 0.00 0.00 44 1018.1
20260502200505 15 110 0.0 1.6 0.00 0.00 0.00 44 1018.1
20260502200008 15 110 0.0 1.6 0.00 0.00 0.00 44 1018.2
20260502195503 15 110 0.0 0.0 0.00 0.00 0.00 44 1018.0
20260502195008 15 110 0.0 8.0 0.00 0.00 0.00 44 1018.0
20260502194503 15 71 0.0 1.6 0.00 0.00 0.00 44 1018.0
20260502194009 14 138 0.0 1.6 0.00 0.00 0.00 46 1018.2
20260502193504 14 138 0.0 0.0 0.00 0.00 0.00 47 1018.2
20260502193003 14 138 0.0 0.0 0.00 0.00 0.00 46 1018.0
20260502192506 15 138 0.0 0.0 0.00 0.00 0.00 46 1018.1
20260502192002 15 138 0.0 0.0 0.00 0.00 0.00 45 1018.0
20260502191502 15 138 0.0 0.0 0.00 0.00 0.00 43 1018.0
20260502191004 16 138 0.0 0.0 0.00 0.00 0.00 42 1017.8
20260502190505 16 138 0.0 0.0 0.00 0.00 0.00 43 1017.8
20260502190014 16 138 0.0 0.0 0.00 0.00 0.00 42 1017.8
20260502185506 16 138 0.0 0.0 0.00 0.00 0.00 40 1017.7
20260502185004 17 138 0.0 3.2 0.00 0.00 0.00 39 1017.7
20260502184506 17 138 0.0 0.0 0.00 0.00 0.00 39 1017.5
20260502184006 17 138 0.0 0.0 0.00 0.00 0.00 39 1017.5
20260502183504 17 138 0.0 0.0 0.00 0.00 0.00 38 1017.4
20260502183005 17 138 0.0 0.0 0.00 0.00 0.00 38 1017.4
20260502182503 18 138 0.0 0.0 0.00 0.00 0.00 37 1017.2
20260502182002 18 138 1.6 1.6 0.00 0.00 0.00 36 1017.1
20260502181503 18 138 0.0 0.0 0.00 0.00 0.00 36 1017.2
20260502181003 18 138 0.0 0.0 0.00 0.00 0.00 35 1017.1
20260502180505 19 138 0.0 0.0 0.00 0.00 0.00 33 1017.1
20260502170506 22 120 0.0 6.4 0.00 0.00 0.00 27 1016.4
20260502164003 23 28 0.0 1.6 0.00 0.00 0.00 28 1016.3
20260502163503 23 28 0.0 3.2 0.00 0.00 0.00 27 1016.4
20260502163004 23 60 3.2 8.0 0.00 0.00 0.00 26 1016.5
20260502162503 23 22 0.0 8.0 0.00 0.00 0.00 27 1016.6
20260502162008 23 18 0.0 4.8 0.00 0.00 0.00 29 1016.7
20260502161503 22 22 3.2 3.2 0.00 0.00 0.00 28 1016.9
20260502161005 22 18 3.2 9.7 0.00 0.00 0.00 27 1016.8
20260502160504 23 106 3.2 4.8 0.00 0.00 0.00 28 1016.6
20260502152005 23 84 0.0 8.0 0.00 0.00 0.00 26 1017.3
20260502151503 23 48 8.0 9.7 0.00 0.00 0.00 26 1017.0
20260502151006 23 30 0.0 9.7 0.00 0.00 0.00 27 1017.2
20260502150504 24 47 0.0 3.2 0.00 0.00 0.00 25 1017.3
20260502130506 22 12 8.0 9.7 0.00 0.00 0.00 29 1018.8
20260502123504 24 18 3.2 3.2 0.00 0.00 0.00 26 1018.8
20260502123004 23 18 0.0 9.7 0.00 0.00 0.00 27 1018.9
20260502122503 23 194 0.0 1.6 0.00 0.00 0.00 27 1019.0
20260502122003 22 194 0.0 3.2 0.00 0.00 0.00 27 1019.4
20260502121503 22 194 4.8 6.4 0.00 0.00 0.00 29 1019.6
20260502121003 22 162 4.8 4.8 0.00 0.00 0.00 28 1019.4
20260502120505 22 162 1.6 6.4 0.00 0.00 0.00 29 1019.5
20260502115503 22 160 0.0 9.7 0.00 0.00 0.00 28 1019.7
20260502115002 22 129 4.8 12.9 0.00 0.00 0.00 29 1019.7
20260502114003 22 125 0.0 9.7 0.00 0.00 0.00 25 1019.9
20260502113503 22 124 1.6 11.3 0.00 0.00 0.00 26 1019.9
20260502113002 23 276 0.0 3.2 0.00 0.00 0.00 27 1019.8
20260502112506 22 270 1.6 1.6 0.00 0.00 0.00 29 1020.1
20260502112002 21 270 3.2 4.8 0.00 0.00 0.00 32 1020.3
20260502111502 21 298 1.6 4.8 0.00 0.00 0.00 32 1020.4
20260502111007 21 298 0.0 3.2 0.00 0.00 0.00 31 1020.5
20260502110505 21 344 3.2 8.0 0.00 0.00 0.00 31 1020.6
20260502110004 20 157 4.8 9.7 0.00 0.00 0.00 33 1020.7
20260502105503 20 138 9.7 17.7 0.00 0.00 0.00 32 1020.8
20260502105004 20 138 4.8 14.5 0.00 0.00 0.00 32 1020.8
20260502104505 21 112 9.7 11.3 0.00 0.00 0.00 32 1020.6
20260502104004 21 30 0.0 6.4 0.00 0.00 0.00 33 1020.7
20260502103504 21 98 0.0 3.2 0.00 0.00 0.00 32 1020.7
20260502103004 21 90 0.0 3.2 0.00 0.00 0.00 33 1021.1
20260502102503 21 94 3.2 12.9 0.00 0.00 0.00 33 1021.2
20260502102002 21 142 8.0 8.0 0.00 0.00 0.00 33 1021.2
20260502101502 20 153 3.2 12.9 0.00 0.00 0.00 34 1021.3
20260502101004 20 187 1.6 3.2 0.00 0.00 0.00 34 1021.4
20260502100503 20 144 1.6 3.2 0.00 0.00 0.00 35 1021.4
20260502091503 19 120 0.0 9.7 0.00 0.00 0.00 39 1022.2
20260502091002 19 116 0.0 8.0 0.00 0.00 0.00 40 1022.2
20260502090503 19 138 6.4 6.4 0.00 0.00 0.00 40 1022.4
20260502071502 13 0 0.0 1.6 0.00 0.00 0.00 59 1024.4
20260502071002 13 0 0.0 0.0 0.00 0.00 0.00 62 1024.5
20260502070504 12 0 0.0 0.0 0.00 0.00 0.00 63 1024.5
20260502070002 12 0 0.0 0.0 0.00 0.00 0.00 63 1024.5
20260502065504 12 0 0.0 0.0 0.00 0.00 0.00 63 1024.7
20260502065002 12 0 0.0 0.0 0.00 0.00 0.00 63 1024.8
20260502064502 12 0 0.0 0.0 0.00 0.00 0.00 65 1024.7
20260502064002 11 0 0.0 1.6 0.00 0.00 0.00 65 1024.9
20260502063503 11 0 0.0 1.6 0.00 0.00 0.00 66 1024.9
20260502063002 11 0 0.0 1.6 0.00 0.00 0.00 66 1025.0
20260502062502 11 0 1.6 1.6 0.00 0.00 0.00 67 1025.1
20260502062002 11 0 0.0 1.6 0.00 0.00 0.00 68 1025.1
20260502061504 11 0 3.2 3.2 0.00 0.00 0.00 66 1025.1
20260502061004 11 0 0.0 0.0 0.00 0.00 0.00 66 1025.1
20260502060503 10 0 0.0 0.0 0.00 0.00 0.00 67 1025.3
20260502060002 9 0 0.0 0.0 0.00 0.00 0.00 70 1025.4
20260502055502 10 0 0.0 0.0 0.00 0.00 0.00 70 1025.3
20260502055004 10 0 0.0 0.0 0.00 0.00 0.00 68 1025.3
20260502054503 9 0 0.0 0.0 0.00 0.00 0.00 71 1025.4
20260502054004 8 0 0.0 0.0 0.00 0.00 0.00 75 1025.5
20260502053502 8 0 0.0 0.0 0.00 0.00 0.00 76 1025.6
20260502053002 8 0 0.0 0.0 0.00 0.00 0.00 78 1025.8
20260502052509 7 0 0.0 0.0 0.00 0.00 0.00 81 1025.9
20260502052003 7 0 0.0 0.0 0.00 0.00 0.00 81 1026.0
20260502051504 6 0 0.0 0.0 0.00 0.00 0.00 83 1026.0
20260502051002 6 0 0.0 0.0 0.00 0.00 0.00 86 1026.1
20260502050502 6 0 0.0 0.0 0.00 0.00 0.00 86 1026.2
20260502050003 5 0 0.0 0.0 0.00 0.00 0.00 87 1026.4
20260502045509 5 0 0.0 0.0 0.00 0.00 0.00 87 1026.4
20260502045002 4 0 0.0 0.0 0.00 0.00 0.00 88 1026.5
20260502044510 3 0 0.0 0.0 0.00 0.00 0.00 89 1026.5
20260502044002 3 0 0.0 0.0 0.00 0.00 0.00 92 1026.6
20260502043504 2 0 0.0 0.0 0.00 0.00 0.00 94 1026.8
20260502043003 2 0 0.0 0.0 0.00 0.00 0.00 96 1026.8
20260502042504 2 0 0.0 0.0 0.00 0.00 0.00 97 1026.9
20260502042002 2 0 0.0 0.0 0.00 0.00 0.00 97 1026.9
20260502041502 2 0 0.0 0.0 0.00 0.00 0.00 97 1026.8
20260502041002 2 0 0.0 0.0 0.00 0.00 0.00 97 1026.8
20260502040503 2 0 0.0 0.0 0.00 0.00 0.00 97 1026.7
20260502040002 2 0 0.0 0.0 0.00 0.00 0.00 96 1026.7
20260502035502 2 0 0.0 0.0 0.00 0.00 0.00 96 1026.6
20260502035002 2 0 0.0 0.0 0.00 0.00 0.00 95 1026.6
20260502034502 2 0 0.0 0.0 0.00 0.00 0.00 94 1026.7
20260502034004 2 0 0.0 0.0 0.00 0.00 0.00 94 1026.9
20260502033504 2 0 0.0 0.0 0.00 0.00 0.00 95 1026.9
20260502033010 2 0 0.0 0.0 0.00 0.00 0.00 95 1026.8
20260502032504 2 0 0.0 0.0 0.00 0.00 0.00 95 1026.8
20260502032008 2 0 0.0 0.0 0.00 0.00 0.00 94 1026.8
20260502031502 2 0 0.0 0.0 0.00 0.00 0.00 94 1026.7
20260502031009 2 0 0.0 0.0 0.00 0.00 0.00 94 1026.7
20260502030503 2 0 0.0 0.0 0.00 0.00 0.00 94 1026.6
20260502030008 2 0 0.0 0.0 0.00 0.00 0.00 93 1026.7
20260502025503 3 0 0.0 0.0 0.00 0.00 0.00 94 1026.6
20260502025008 3 0 0.0 0.0 0.00 0.00 0.00 93 1026.6
20260502024502 3 0 0.0 0.0 0.00 0.00 0.00 93 1026.5
20260502024003 3 0 0.0 0.0 0.00 0.00 0.00 91 1026.4
20260502023502 3 0 0.0 0.0 0.00 0.00 0.00 91 1026.5
20260502023003 3 0 0.0 0.0 0.00 0.00 0.00 92 1026.6
20260502022503 3 0 0.0 0.0 0.00 0.00 0.00 91 1026.6
20260502022003 3 0 0.0 0.0 0.00 0.00 0.00 91 1026.5
20260502021503 3 0 0.0 0.0 0.00 0.00 0.00 92 1026.5
20260502021004 3 0 0.0 0.0 0.00 0.00 0.00 91 1026.6
20260502020504 3 0 0.0 0.0 0.00 0.00 0.00 91 1026.7
20260502020002 3 0 0.0 0.0 0.00 0.00 0.00 91 1026.6
20260502015509 3 0 0.0 0.0 0.00 0.00 0.00 91 1026.7
20260502015002 3 0 0.0 0.0 0.00 0.00 0.00 92 1026.8
20260502014509 3 0 0.0 0.0 0.00 0.00 0.00 91 1026.8
20260502014002 3 0 0.0 0.0 0.00 0.00 0.00 92 1026.7
20260502013509 3 0 0.0 0.0 0.00 0.00 0.00 92 1027.0
20260502013002 3 0 0.0 0.0 0.00 0.00 0.00 93 1027.1
20260502012508 3 0 0.0 0.0 0.00 0.00 0.00 93 1027.0
20260502012002 3 0 0.0 0.0 0.00 0.00 0.00 93 1027.0
20260502011510 3 0 0.0 0.0 0.00 0.00 0.00 92 1027.1
20260502011002 3 0 0.0 0.0 0.00 0.00 0.00 93 1027.1
20260502010504 3 0 0.0 0.0 0.00 0.00 0.00 93 1027.1
20260502010010 3 0 0.0 0.0 0.00 0.00 0.00 92 1027.1
20260502005506 3 0 0.0 0.0 0.00 0.00 0.00 93 1027.1
20260502005008 3 0 0.0 0.0 0.00 0.00 0.00 91 1027.0
20260502004503 3 0 0.0 0.0 0.00 0.00 0.00 89 1027.0
20260502004011 4 0 0.0 0.0 0.00 0.00 0.00 88 1027.0
20260502003502 4 0 0.0 0.0 0.00 0.00 0.00 87 1027.0
20260502003008 4 0 0.0 0.0 0.00 0.00 0.00 87 1027.0
20260502002502 4 0 0.0 0.0 0.00 0.00 0.00 88 1027.0
20260502002003 4 0 0.0 0.0 0.00 0.00 0.00 88 1027.1
20260502001502 4 0 0.0 0.0 0.00 0.00 0.00 88 1027.1
20260502001004 4 0 0.0 0.0 0.00 0.00 0.00 89 1027.2
20260502000504 4 0 0.0 0.0 0.00 0.00 0.00 88 1027.1
20260502000002 4 0 0.0 0.0 0.00 0.00 0.00 88 1027.1
20260501235503 5 0 0.0 0.0 0.00 0.00 0.00 88 1026.9
20260501235002 4 0 0.0 0.0 0.00 0.00 0.00 88 1027.0
20260501234502 5 0 0.0 0.0 0.00 0.00 0.00 86 1027.1
20260501234002 5 0 0.0 0.0 0.00 0.00 0.00 87 1027.0
20260501233502 5 0 0.0 0.0 0.00 0.00 0.00 84 1027.1
20260501233002 6 0 0.0 0.0 0.00 0.00 0.00 83 1026.9
20260501232502 6 0 0.0 0.0 0.00 0.00 0.00 82 1026.7
20260501232002 6 0 0.0 0.0 0.00 0.00 0.00 82 1026.8
20260501231507 6 0 0.0 0.0 0.00 0.00 0.00 81 1026.8
20260501231004 5 0 0.0 0.0 0.00 0.00 0.00 83 1026.9
20260501230508 6 0 0.0 0.0 0.00 0.00 0.00 83 1026.9
20260501230002 6 0 0.0 0.0 0.00 0.00 0.00 84 1026.9
20260501225506 6 0 0.0 0.0 0.00 0.00 0.00 83 1026.8
20260501225003 6 0 0.0 0.0 0.00 0.00 0.00 82 1027.0
20260501224502 6 0 0.0 0.0 0.00 0.00 0.00 81 1026.9
20260501224002 6 0 0.0 0.0 0.00 0.00 0.00 78 1026.8
20260501223504 6 0 0.0 0.0 0.00 0.00 0.00 80 1026.9
20260501223003 6 0 0.0 0.0 0.00 0.00 0.00 80 1026.9
20260501222502 6 0 0.0 0.0 0.00 0.00 0.00 80 1026.9
20260501222002 6 0 0.0 0.0 0.00 0.00 0.00 80 1026.8
20260501221507 6 0 0.0 0.0 0.00 0.00 0.00 80 1026.8
20260501221002 6 0 0.0 0.0 0.00 0.00 0.00 81 1026.7
20260501220503 7 0 0.0 0.0 0.00 0.00 0.00 80 1026.7
20260501220010 7 0 0.0 0.0 0.00 0.00 0.00 77 1026.8
20260501215501 6 0 0.0 0.0 0.00 0.00 0.00 80 1026.8
20260501215007 6 0 0.0 0.0 0.00 0.00 0.00 79 1026.8